Regional Weather Roundup
Issued by NWS Cleveland, OH

Home | Current Version | Previous Version | Graphics & Text | Print | Product List | Glossary On
Versions: 1 2 3 4 5 6 7 8 9 10 11 12 13 14 15 16 17 18 19 20 21 22 23 24 25 26 27 28 29 30 31 32 33 34 35 36 37 38 39 40 41 42 43 44 45 46 47 48 49 50
000
ASUS41 KCLE 191410
RWRCLE
OHIO REGIONAL WEATHER ROUNDUP
NATIONAL WEATHER SERVICE WILMINGTON, OH
1000 AM EDT FRI SEP 19 2014

NOTE: "FAIR" INDICATES FEW OR NO CLOUDS BELOW 12,000 FEET WITH NO
SIGNIFICANT WEATHER AND/OR OBSTRUCTIONS TO VISIBILITY.

OHZ001>008-015>018-024>027-034-035-043-044-191500-
   NORTHWEST OHIO

CITY           SKY/WX    TMP DP  RH WIND       PRES   REMARKS
DEFIANCE       SUNNY     56  50  80 E6        30.25S
FINDLAY        SUNNY     58  51  78 E8        30.23S
TOLEDO EXPRESS SUNNY     57  50  77 E5        30.25R
TOLEDO METCALF SUNNY     60  49  66 E8        30.26S
LIMA           SUNNY     58  51  78 E10       30.23S
$$

OHZ009>014-019>023-028>033-038-089-191500-
   NORTHEAST OHIO

CITY           SKY/WX    TMP DP  RH WIND       PRES   REMARKS
CLE-HOPKINS    MOSUNNY   59  50  72 SE7       30.27S
CLE-LAKEFRONT  SUNNY     60  49  66 SE7       30.24S
CUY CO. ARPT   SUNNY     61  54  77 SE7       30.25F
LORAIN-ELYRIA  SUNNY     59  51  75 S3        30.26S
ASHTABULA      SUNNY     55  49  80 SE6       30.27S
AKRON-CANTON   MOSUNNY   58  49  72 E6        30.25S
WOOSTER        SUNNY     58  51  78 E7        30.26R
MANSFIELD      SUNNY     58  50  75 E10       30.25R
YOUNGSTOWN     MOSUNNY   55  49  80 SE8       30.26S
$$

OHZ042-051>053-060>062-070>072-077>081-191500-
  SOUTHWEST OHIO

CITY           SKY/WX    TMP DP  RH WIND       PRES   REMARKS
CINC-COVINGTON MOSUNNY   61  51  70 NE8       30.19R
CINC-LUNKEN    SUNNY     60  52  74 NE7       30.20R
HAMILTON       SUNNY     61  53  75 E5        30.21S
DAYTON         MOSUNNY   60  50  69 E12       30.23R
WRIGHT-PAT AFB MOSUNNY   59  51  73 E6        30.22R
DAYTON GENERAL SUNNY     59  52  77 E7        30.21R
WILMINGTON     SUNNY     57  51  80 E8        30.21R
$$

OHZ036-037-039>041-045>050-054>059-063>069-073>076-082>088-191500-
  CENTRAL AND SOUTHEAST OHIO

CITY           SKY/WX    TMP DP  RH WIND       PRES   REMARKS
COLUMBUS       SUNNY     63  48  58 NE13      30.22R
OSU AIRPORT    SUNNY     60  49  66 E9        30.23R
BOLTON FIELD   SUNNY     59  52  77 E6        30.23R
RICKENBACK AFB SUNNY     58  50  77 NE9       30.22R
NEWARK         SUNNY     58  50  75 VRB3      30.23R
MARION         SUNNY     59  51  75 E9        30.24S
LANCASTER      SUNNY     60  52  74 E5        30.22R
ZANESVILLE     SUNNY     59  50  72 E6        30.22R
NEW PHILLY     SUNNY     58  51  78 CALM      30.24S
$$



USA.gov is the U.S. government's official web portal to all federal, state and local government web resources and services.